Weather History for KMCD - April, 2014

Change the Weather History Date:

Tuesday, April 15, 2014

  Actual Average Record
Temperature  
Mean Temperature 22 °F -  
Max Temperature 27 °F - - ()
Min Temperature 16 °F - - ()
Degree Days  
Heating Degree Days 44    
Moisture  
Dew Point 14 °F    
Average Humidity 74    
Maximum Humidity 96    
Minimum Humidity 50    
Precipitation  
Precipitation 0.04 in - - ()
Sea Level Pressure  
Sea Level Pressure 29.99 in    
Wind  
Wind Speed 10 mph (NNW)    
Max Wind Speed 16 mph    
Max Gust Speed 25 mph    
Visibility 8 miles    
Events Snow    
T = Trace of Precipitation, MM = Missing Value Source: NWS Daily Summary

Daily Weather History Graph

Daily Weather History Graph

Search for Another Location

Airport or City:

Trip Planner

Search our weather history database for the weather conditions in past years. The results will help you decide how hot, cold, wet, or windy it might be!

Date:

Astronomy

Apr. 15, 2014 Rise Set
Actual Time 6:52 AM EDT 8:25 PM EDT
Civil Twilight 6:21 AM EDT 8:56 PM EDT
Nautical Twilight 5:43 AM EDT 9:34 PM EDT
Astronomical Twilight 5:02 AM EDT 10:15 PM EDT
Moon 9:07 PM EDT (4/15) 6:59 AM EDT (4/15)
Length of Visible Light 14h 35m
Length of Day
13h 32m
Full, 100% of the Moon is Illuminated
Apr 15
Full
Apr 22
Last Quarter
Apr 29
New
May 6
First Quarter
May 14
Full

Hourly Weather History & Observations

Time (EDT) Temp. Windchill Dew Point Humidity Pressure Visibility Wind Dir Wind Speed Gust Speed Precip Events Conditions
12:17 AM 21.9 °F 10.4 °F 20.8 °F 96% 29.88 in 2.5 mi NNW 11.5 mph 17.3 mph N/A Snow Light Snow
12:37 AM 21.7 °F 12.3 °F 20.5 °F 95% 29.88 in 2.5 mi NNW 8.1 mph 16.1 mph N/A Snow Light Snow
12:57 AM 21.6 °F 8.8 °F 20.3 °F 95% 29.87 in 2.5 mi NNW 13.8 mph 17.3 mph 0.01 in Snow Light Snow
1:17 AM 21.4 °F 11.1 °F 20.3 °F 96% 29.87 in 3.0 mi NNW 9.2 mph 16.1 mph N/A Snow Light Snow
1:37 AM 21.2 °F 12.6 °F 20.3 °F 96% 29.88 in 3.0 mi NNW 6.9 mph 17.3 mph N/A Snow Light Snow
1:57 AM 21.2 °F 10.9 °F 20.1 °F 96% 29.88 in 3.0 mi NNW 9.2 mph 17.3 mph N/A Snow Light Snow
2:17 AM 20.8 °F 9.7 °F 19.4 °F 94% 29.88 in 3.0 mi North 10.4 mph 17.3 mph N/A Snow Light Snow
2:37 AM 20.3 °F 9.0 °F 19.2 °F 96% 29.88 in 2.5 mi North 10.4 mph 16.1 mph N/A Snow Light Snow
2:57 AM 20.3 °F 9.8 °F 19.0 °F 95% 29.88 in 4.0 mi NNW 9.2 mph 17.3 mph N/A Snow Light Snow
3:17 AM 19.9 °F 7.9 °F 18.3 °F 93% 29.87 in 4.0 mi North 11.5 mph 16.1 mph N/A   Overcast
3:37 AM 19.8 °F 9.9 °F 18.1 °F 93% 29.88 in 2.5 mi North 8.1 mph 18.4 mph N/A Snow Light Snow
3:57 AM 19.4 °F 7.9 °F 18.0 °F 94% 29.88 in 3.0 mi North 10.4 mph - N/A Snow Light Snow
4:17 AM 19.4 °F 7.9 °F 18.0 °F 94% 29.88 in 3.0 mi North 10.4 mph 16.1 mph N/A Snow Light Snow
4:37 AM 19.0 °F 6.1 °F 17.4 °F 93% 29.88 in 3.0 mi North 12.7 mph 18.4 mph N/A Snow Light Snow
4:57 AM 18.9 °F 8.0 °F 17.2 °F 93% 29.88 in 3.0 mi North 9.2 mph 18.4 mph N/A Snow Light Snow
5:17 AM 18.5 °F 7.5 °F 17.1 °F 94% 29.87 in 3.0 mi North 9.2 mph - N/A Snow Light Snow
5:38 AM 18.3 °F 6.6 °F 16.9 °F 94% 29.88 in 4.0 mi North 10.4 mph 18.4 mph N/A Snow Light Snow
5:57 AM 18.0 °F 6.9 °F 16.5 °F 94% 29.88 in 10.0 mi North 9.2 mph 16.1 mph N/A   Overcast
6:17 AM 17.4 °F 6.2 °F 15.6 °F 93% 29.89 in 10.0 mi NNW 9.2 mph 19.6 mph N/A   Overcast
6:38 AM 17.1 °F 6.6 °F 15.1 °F 92% 29.90 in 10.0 mi NNW 8.1 mph 16.1 mph N/A   Overcast
6:57 AM 16.7 °F 6.2 °F 14.9 °F 93% 29.91 in 10.0 mi NNW 8.1 mph - N/A   Overcast
7:17 AM 16.9 °F 4.1 °F 14.4 °F 90% 29.92 in 10.0 mi North 11.5 mph - N/A   Overcast
7:38 AM 16.7 °F 4.5 °F 14.0 °F 89% 29.92 in 10.0 mi North 10.4 mph - N/A   Mostly Cloudy
7:57 AM 17.8 °F 5.9 °F 14.4 °F 86% 29.93 in 10.0 mi North 10.4 mph - N/A   Overcast
8:17 AM 17.6 °F 5.7 °F 13.6 °F 84% 29.94 in 10.0 mi North 10.4 mph 16.1 mph N/A   Overcast
8:37 AM 18.1 °F 6.3 °F 13.8 °F 83% 29.95 in 10.0 mi North 10.4 mph 16.1 mph N/A   Mostly Cloudy
8:57 AM 19.6 °F 8.1 °F 13.6 °F 78% 29.95 in 10.0 mi North 10.4 mph - N/A   Mostly Cloudy
9:16 AM 19.9 °F 10.1 °F 14.0 °F 78% 29.95 in 10.0 mi NNW 8.1 mph - N/A   Scattered Clouds
9:37 AM 20.3 °F 9.0 °F 14.0 °F 77% 29.95 in 10.0 mi NNW 10.4 mph - N/A   Clear
9:57 AM 21.7 °F 10.2 °F 13.3 °F 70% 29.96 in 10.0 mi NW 11.5 mph 20.7 mph N/A   Clear
10:17 AM 21.2 °F 9.5 °F 10.9 °F 65% 29.96 in 10.0 mi NNW 11.5 mph 20.7 mph N/A   Mostly Cloudy
10:37 AM 23.4 °F 10.6 °F 12.2 °F 62% 29.96 in 10.0 mi NNW 15.0 mph 20.7 mph 0.01 in   Mostly Cloudy
10:58 AM 22.8 °F 9.4 °F 11.5 °F 62% 29.97 in 10.0 mi NW 16.1 mph 20.7 mph 0.02 in   Overcast
11:17 AM 23.7 °F 11.0 °F 11.5 °F 60% 29.97 in 10.0 mi NNW 15.0 mph 21.9 mph 0.01 in   Overcast
11:37 AM 23.2 °F 10.8 °F 10.4 °F 58% 29.98 in 10.0 mi NNW 13.8 mph 23.0 mph 0.01 in   Mostly Cloudy
11:58 AM 23.5 °F 11.8 °F 10.9 °F 59% 29.98 in 10.0 mi NNW 12.7 mph 19.6 mph 0.01 in   Scattered Clouds
12:17 PM 23.7 °F 11.5 °F 9.1 °F 54% 29.99 in 10.0 mi NW 13.8 mph 21.9 mph N/A   Scattered Clouds
12:58 PM 24.4 °F 11.9 °F 9.9 °F 54% 30.00 in 10.0 mi NNW 15.0 mph 23.0 mph N/A   Mostly Cloudy
1:37 PM 24.8 °F 14.6 °F 10.6 °F 55% 30.00 in 10.0 mi NW 10.4 mph 25.3 mph N/A   Overcast
1:57 PM 25.2 °F 12.9 °F 9.5 °F 52% 30.00 in 10.0 mi NW 15.0 mph 21.9 mph N/A   Overcast
2:17 PM 25.5 °F 13.8 °F 9.7 °F 51% 30.01 in 10.0 mi NW 13.8 mph 21.9 mph N/A   Overcast
2:38 PM 24.8 °F 13.4 °F 9.5 °F 52% 30.01 in 10.0 mi NNW 12.7 mph 23.0 mph N/A   Overcast
2:57 PM 25.3 °F 12.6 °F 9.7 °F 52% 30.01 in 10.0 mi NW 16.1 mph 23.0 mph N/A   Overcast
3:17 PM 26.6 °F 15.7 °F 10.6 °F 51% 30.02 in 10.0 mi NW 12.7 mph 24.2 mph N/A   Overcast
3:38 PM 25.0 °F 12.2 °F 10.8 °F 55% 30.02 in 10.0 mi NW 16.1 mph 21.9 mph N/A   Overcast
3:57 PM 24.8 °F 13.4 °F 10.8 °F 55% 30.03 in 10.0 mi NW 12.7 mph 19.6 mph N/A   Overcast
4:18 PM 27.0 °F 16.7 °F 11.8 °F 53% 30.03 in 10.0 mi NW 11.5 mph 21.9 mph N/A   Overcast
4:37 PM 26.4 °F 14.0 °F 10.0 °F 50% 30.04 in 10.0 mi NW 16.1 mph 21.9 mph N/A   Overcast
4:58 PM 27.0 °F 16.1 °F 11.1 °F 51% 30.04 in 10.0 mi NW 12.7 mph 23.0 mph N/A   Overcast
5:17 PM 27.0 °F 15.6 °F 10.6 °F 50% 30.04 in 10.0 mi NW 13.8 mph 20.7 mph N/A   Overcast
5:37 PM 26.1 °F 16.2 °F 10.2 °F 51% 30.05 in 10.0 mi NW 10.4 mph 19.6 mph N/A   Mostly Cloudy
5:57 PM 25.7 °F 14.6 °F 10.9 °F 54% 30.05 in 10.0 mi NW 12.7 mph 16.1 mph N/A   Mostly Cloudy
6:18 PM 25.3 °F 15.3 °F 11.3 °F 55% 30.05 in 10.0 mi NW 10.4 mph 18.4 mph N/A   Overcast
6:37 PM 25.3 °F 14.1 °F 11.5 °F 56% 30.06 in 10.0 mi NNW 12.7 mph 17.3 mph N/A   Overcast
6:57 PM 24.6 °F 13.2 °F 11.5 °F 57% 30.07 in 10.0 mi NNW 12.7 mph 17.3 mph N/A   Overcast
7:18 PM 24.4 °F 15.6 °F 11.8 °F 59% 30.08 in 10.0 mi NW 8.1 mph - N/A   Overcast
7:38 PM 23.9 °F 16.8 °F 12.2 °F 61% 30.08 in 10.0 mi NNW 5.8 mph - N/A   Overcast
7:57 PM 23.9 °F 15.0 °F 12.9 °F 63% 30.09 in 10.0 mi WNW 8.1 mph - N/A   Overcast
8:18 PM 22.8 °F 12.9 °F 17.2 °F 79% 30.09 in 10.0 mi West 9.2 mph - N/A   Overcast
8:37 PM 22.5 °F 13.2 °F 16.3 °F 77% 30.10 in 10.0 mi West 8.1 mph - N/A   Overcast
8:57 PM 22.1 °F 12.0 °F 17.8 °F 83% 30.12 in 10.0 mi West 9.2 mph - N/A   Overcast
9:18 PM 22.5 °F 14.1 °F 16.9 °F 79% 30.13 in 10.0 mi WNW 6.9 mph - N/A   Overcast
9:37 PM 21.9 °F 14.5 °F 15.4 °F 76% 30.14 in 10.0 mi West 5.8 mph - N/A   Overcast
9:58 PM 21.2 °F 14.9 °F 15.8 °F 80% 30.15 in 10.0 mi WNW 4.6 mph - N/A   Mostly Cloudy
10:18 PM 20.3 °F 13.8 °F 15.6 °F 82% 30.16 in 10.0 mi North 4.6 mph - N/A   Mostly Cloudy
10:37 PM 20.3 °F 12.5 °F 12.9 °F 73% 30.17 in 10.0 mi North 5.8 mph - N/A   Overcast
10:58 PM 20.3 °F - 12.6 °F 72% 30.17 in 10.0 mi Calm Calm - N/A   Overcast
11:18 PM 19.9 °F - 12.4 °F 72% 30.18 in 10.0 mi Calm Calm - N/A   Mostly Cloudy
11:37 PM 19.2 °F 14.1 °F 12.2 °F 74% 30.18 in 10.0 mi WNW 3.5 mph - N/A   Scattered Clouds
11:57 PM 18.7 °F - 12.2 °F 76% 30.19 in 10.0 mi Calm Calm - N/A   Scattered Clouds